Weather in Tsentralnyy

Russia / Ivanovo Oblast     56°44′33″N   41°22′27″E
temp.,
°C
wind,
m/s
gust,
m/s
humid.,
%
clouds,
%
prec.,
mm/h
press.,
hPa
HPBL,
m
7 march, sun
sun700:00−14sw23940 0.0 101235
03:00−15ssw38950 0.0 1009157
06:00−11s5129180 0.0 1005372
09:00−8ssw6139190 0.2 1000879
12:00−6ssw71292100 1.3 996972
15:00−4ssw61193100 2.8 993928
18:00−3w3793100 1.9 991541
21:00−8nw2583100 1.9 991128
8 march, mon
mon800:00−10nw1176100 0.0 99121
03:00−12wsw228495 0.0 99322
06:00−11w2392100 0.0 99456
09:00−10sw249376 0.0 995235
12:00−6w0189100 0.4 996407
15:00−6nnw3487100 0.9 999609
18:00−9nw3891100 0.1 1001235
21:00−11nw389596 0.1 1005222
9 march, tue
tue900:00−13nnw389584 0.1 1007276
03:00−16nnw379779 0.1 1009170
06:00−19nnw379881 0.0 1011153
09:00−19nnw369375 0.0 1013268
12:00−15nnw358783 0.0 1014444
15:00−13nnw458591 0.0 1016630
18:00−17nnw3893100 0.0 1017274
21:00−20nnw3898100 0.1 1020230
10 march, wed
wed1000:00−23nnw379877 0.0 1021152
03:00−26nnw359849 0.0 1022110
06:00−28nnw25970 0.0 1024122
09:00−24n35930 0.0 1025253
12:00−18nnw258216 0.0 1026443
15:00−15nw35778 0.0 1025620
18:00−18wnw23900 0.0 102529
21:00−20w38950 0.0 1026148
11 march, thu
thu1100:00−21wnw369618 0.0 1026131
03:00−22w369410 0.0 1027110
06:00−23w239210 0.0 102777
09:00−18w258316 0.0 1028196
12:00−11wsw24780 0.0 1027352
15:00−9sw24730 0.0 1026462
18:00−13s23880 0.0 102521
21:00−14s310920 0.0 1024259